Starlink 3343

operational
NORAD ID: 50822 Int'l Des: 2022-001 Owner: SPXS Country: US Constellation: starlink
LEOCIRCULAR

关于 Starlink 3343

正在加载描述...

实时位置

正在加载3D地球...

即将过境

高度历史

Altitude vs Time

uPlot chart will show altitude changes over time

两行轨道根数

1 50822U 22001V 25302.52162941 .00000241 00000-0 33237-4 0 9993
2 50822 53.2187 37.9557 0001198 87.4398 272.6732 15.08838406210600
Epoch: Oct 29, 2025 • Age: 12 hours

当前状态

高度 543.9 km
速度 7.59 km/s
星下点 -14.45°S, 179.65°W
发射日期 Jan 6, 2022
运行时间 3.8 years
类型 internet

技术详情

分类 Payload
质量 297.00 kg
干质量 275.00 kg
总质量 297.00 kg
长度 0.20 m
直径 2.80 m
跨度 9.00 m
形状 Box + pan
制造商 SPXS
平台类型 Starlink
阶段状态 In Orbit
所有者/国家 SPXS/US

大型星座

Loading constellations...